Content
SEND FEEDBACK

Daily
Averages
Monthly
Summary
United States of America

ELK CITY, IDAHO


Home > North America > United States > Idaho
Elevation: 4302 feet     Latitude: 45 49N     Longitude: 115 26W

WEATHER
 
SELECT A DAY
Number of Records: 162,178;   Date Range: 1/1/95 - 7/7/14
 
SHARE

PRINT THIS DATA

[ ← Previous Day ]
WEATHER ALMANAC - JANUARY 31, 2013
[ Next Day → ]
[ °C ]   °F
Weather ElementAverageHighLow
Temperature33.8 °F36 °F (1:52 pm)33.1 °F (1:52 am)
Dewpoint31.8 °F34 °F (2:52 pm)30.9 °F (1:52 am)
Humidity92.1 %96 % (2:52 pm)89 % (10:52 am)
Barometer30.38 in30.42 in (10:52 am)30.32 in (11:52 pm)

Weather ElementAverage
Weather ElementTotal
Precipitation0.26 in
Heating Degree Days30.5 (Base 65)
Averaged from 23 records on January 31, 2013
WEATHER CONDITIONS BREAKOUT
WIND DIRECTION BREAKOUT
WEATHER BY HOUR - JANUARY 31, 2013
[ °C ]   °F
Local TimeTemperatureDewpointHumidityBarometerVisibilityWind DirectionWind SpeedGust SpeedPrecipitationEventsConditions
1:52 AM33.1 °F30.9 °F92 %30.39 inCalm
2:52 AM33.1 °F30.9 °F92 %30.40 inCalm
3:52 AM33.1 °F30.9 °F92 %30.40 inCalm
4:52 AM33.1 °F30.9 °F92 %30.40 inCalm
5:52 AM33.1 °F30.9 °F92 %30.40 inCalm
6:52 AM33.1 °F30.9 °F92 %30.40 inCalm
7:52 AM33.1 °F30.9 °F92 %30.39 inCalm0.01 in
8:52 AM33.1 °F30.9 °F92 %30.40 inCalm0.03 in
9:52 AM33.1 °F30.9 °F92 %30.41 inCalm0.03 in
10:52 AM34.0 °F30.9 °F89 %30.42 inCalm0.01 in
11:52 AM35.1 °F32.0 °F89 %30.41 inCalm0.02 in
12:52 PM35.1 °F33.1 °F92 %30.40 inCalm0.01 in
1:52 PM36.0 °F33.1 °F89 %30.38 inCalm0.02 in
2:52 PM35.1 °F34.0 °F96 %30.38 inCalm0.02 in
3:52 PM35.1 °F33.1 °F92 %30.38 inCalm0.02 in
4:52 PM34.0 °F32.0 °F92 %30.37 inCalm0.02 in
5:52 PM34.0 °F32.0 °F92 %30.37 inCalm0.01 in
6:52 PM34.0 °F32.0 °F92 %30.36 inCalm
7:52 PM34.0 °F32.0 °F92 %30.35 inCalm0.03 in
8:52 PM34.0 °F32.0 °F92 %30.34 inCalm0.01 in
9:52 PM34.0 °F32.0 °F92 %30.33 inCalm
10:52 PM33.1 °F32.0 °F96 %30.33 inCalm
11:52 PM33.1 °F32.0 °F96 %30.32 inCalm0.02 in
Hourly data recorded from KP69, located miles away from Elk City, Idaho







STORIES FROM OUR PARTNERS